IBE334 LEBB-EDDS

Flight info

Callsign IBE334
Flight time 1h 41m
Altitude 33000
Route BISKA5A BISKA P87 BELEN/N0475F380 DCT DIDIG/N0473F400 DCT ARDOD UN873 OBATO DCT RESMI/N0475F390 UN491 POGZI DCT GELTA DCT LUVAL/N0429F240 DCT EPL R11 POGOL/N0388F170 R11 OBORN V17 LUPEN T126 REUTL REUTL1W
Aircraft A343/H-VGDW/C

Departure

Time 2026-05-06 16:46
Airport Bilbao Airport (LEBB)

Arrival

Time 2026-05-06 18:28
Airport Stuttgart Airport (EDDS)
Time Latitude Longitude Altitude Speed Heading
2026-05-06 16:23 43.30377 -2.90509 131 ft 0 kts 27°
2026-05-06 16:25 43.30377 -2.90510 131 ft 0 kts 27°
2026-05-06 16:32 43.30376 -2.90510 131 ft 0 kts 27°
2026-05-06 16:33 43.30363 -2.90519 124 ft 3 kts 27°
2026-05-06 16:34 43.30331 -2.90541 131 ft 3 kts 27°
2026-05-06 16:34 43.30315 -2.90552 129 ft 3 kts 39°
2026-05-06 16:34 43.30304 -2.90567 131 ft 2 kts 77°
2026-05-06 16:34 43.30301 -2.90576 131 ft 1 kts 116°
2026-05-06 16:35 43.30300 -2.90575 131 ft 1 kts 117°
2026-05-06 16:36 43.30279 -2.90546 121 ft 8 kts 141°
2026-05-06 16:36 43.30225 -2.90532 131 ft 8 kts 193°
2026-05-06 16:36 43.30168 -2.90566 130 ft 10 kts 200°
2026-05-06 16:36 43.30109 -2.90540 124 ft 9 kts 130°
2026-05-06 16:37 43.30076 -2.90455 127 ft 10 kts 117°
2026-05-06 16:37 43.30042 -2.90366 127 ft 12 kts 117°
2026-05-06 16:37 43.30002 -2.90261 126 ft 13 kts 117°
2026-05-06 16:37 43.29957 -2.90137 127 ft 17 kts 116°
2026-05-06 16:38 43.29900 -2.89975 129 ft 20 kts 116°
2026-05-06 16:38 43.29835 -2.89799 124 ft 21 kts 116°
2026-05-06 16:38 43.29786 -2.89664 127 ft 11 kts 116°
2026-05-06 16:38 43.29742 -2.89593 127 ft 9 kts 165°
2026-05-06 16:39 43.29683 -2.89623 128 ft 11 kts 208°
2026-05-06 16:39 43.29620 -2.89672 127 ft 5 kts 219°
2026-05-06 16:39 43.29622 -2.89728 126 ft 8 kts 295°
2026-05-06 16:39 43.29702 -2.89929 122 ft 51 kts 299°
2026-05-06 16:40 43.29860 -2.90378 130 ft 46 kts 296°
2026-05-06 16:40 43.29965 -2.90670 128 ft 23 kts 296°
2026-05-06 16:40 43.30010 -2.90794 126 ft 7 kts 296°
2026-05-06 16:40 43.30039 -2.90872 128 ft 11 kts 301°
2026-05-06 16:41 43.30075 -2.90864 129 ft 9 kts 45°
2026-05-06 16:41 43.30083 -2.90758 129 ft 13 kts 95°
2026-05-06 16:41 43.30088 -2.90645 130 ft 10 kts 62°
2026-05-06 16:41 43.30113 -2.90572 132 ft 8 kts 97°
2026-05-06 16:42 43.30087 -2.90489 126 ft 11 kts 116°
2026-05-06 16:42 43.30045 -2.90382 128 ft 14 kts 118°
2026-05-06 16:42 43.29999 -2.90264 127 ft 15 kts 118°
2026-05-06 16:42 43.29968 -2.90178 129 ft 8 kts 114°
2026-05-06 16:43 43.29941 -2.90095 127 ft 11 kts 112°
2026-05-06 16:43 43.29913 -2.90013 130 ft 1 kts 117°
2026-05-06 16:44 43.29884 -2.89936 127 ft 14 kts 117°
2026-05-06 16:44 43.29832 -2.89796 128 ft 19 kts 117°
2026-05-06 16:45 43.29780 -2.89650 126 ft 9 kts 115°
2026-05-06 16:45 43.29730 -2.89596 129 ft 11 kts 181°
2026-05-06 16:45 43.29661 -2.89643 126 ft 12 kts 210°
2026-05-06 16:45 43.29621 -2.89721 128 ft 9 kts 278°
2026-05-06 16:46 43.29650 -2.89802 127 ft 20 kts 297°
2026-05-06 16:46 43.29827 -2.90300 128 ft 98 kts 296°
2026-05-06 16:46 43.30246 -2.91433 163 ft 163 kts 297°
2026-05-06 16:46 43.30757 -2.92850 956 ft 164 kts 294°
2026-05-06 16:47 43.31373 -2.94171 1896 ft 169 kts 313°
2026-05-06 16:47 43.32145 -2.95461 2379 ft 186 kts 310°
2026-05-06 16:47 43.32991 -2.96886 2959 ft 199 kts 310°
2026-05-06 16:47 43.33889 -2.98417 3635 ft 213 kts 308°
2026-05-06 16:48 43.34831 -3.00058 4412 ft 224 kts 309°
2026-05-06 16:48 43.36060 -3.01429 5134 ft 238 kts 332°
2026-05-06 16:48 43.37711 -3.02016 5781 ft 255 kts 357°
2026-05-06 16:48 43.39480 -3.01473 6544 ft 271 kts 25°
2026-05-06 16:49 43.41034 -3.00041 7434 ft 276 kts 40°
2026-05-06 16:49 43.42390 -2.98150 8338 ft 279 kts 44°
2026-05-06 16:49 43.43776 -2.96249 9233 ft 283 kts 41°
2026-05-06 16:49 43.45241 -2.94405 10053 ft 288 kts 39°
2026-05-06 16:50 43.46815 -2.92606 10590 ft 303 kts 36°
2026-05-06 16:50 43.48603 -2.90912 10933 ft 321 kts 26°
2026-05-06 16:50 43.50692 -2.89639 11268 ft 337 kts 19°
2026-05-06 16:50 43.52926 -2.88525 11578 ft 354 kts 17°
2026-05-06 16:51 43.55328 -2.87391 12076 ft 365 kts 17°
2026-05-06 16:51 43.57722 -2.86278 12718 ft 371 kts 17°
2026-05-06 16:51 43.60184 -2.85140 13416 ft 376 kts 17°
2026-05-06 16:51 43.62681 -2.83990 14106 ft 380 kts 17°
2026-05-06 16:52 43.65204 -2.82828 14787 ft 384 kts 17°
2026-05-06 16:52 43.67750 -2.81671 15463 ft 387 kts 15°
2026-05-06 16:52 43.70346 -2.80654 16142 ft 389 kts 13°
2026-05-06 16:52 43.72987 -2.79752 16815 ft 392 kts 12°
2026-05-06 16:53 43.75660 -2.78905 17491 ft 396 kts 11°
2026-05-06 16:53 43.78323 -2.78077 18151 ft 399 kts 11°
2026-05-06 16:53 43.81042 -2.77225 18740 ft 403 kts 11°
2026-05-06 16:53 43.83781 -2.76354 19302 ft 406 kts 11°
2026-05-06 16:54 43.86547 -2.75463 19871 ft 410 kts 12°
2026-05-06 16:54 43.89335 -2.74556 20409 ft 413 kts 12°
2026-05-06 16:54 43.92145 -2.73638 20959 ft 417 kts 12°
2026-05-06 16:54 43.94996 -2.72843 21497 ft 419 kts
2026-05-06 16:55 43.97887 -2.72202 22038 ft 422 kts
2026-05-06 16:55 44.00766 -2.71629 22557 ft 425 kts
2026-05-06 16:55 44.03706 -2.71052 23129 ft 428 kts
2026-05-06 16:55 44.06659 -2.70455 23607 ft 431 kts
2026-05-06 16:56 44.09635 -2.69832 24011 ft 434 kts
2026-05-06 16:56 44.12628 -2.69186 24431 ft 437 kts
2026-05-06 16:56 44.15638 -2.68523 24838 ft 439 kts
2026-05-06 16:56 44.18665 -2.67850 25247 ft 442 kts
2026-05-06 16:57 44.21708 -2.67170 25667 ft 444 kts
2026-05-06 16:57 44.24719 -2.66497 26126 ft 444 kts
2026-05-06 16:57 44.27775 -2.65814 26556 ft 446 kts
2026-05-06 16:57 44.30844 -2.65128 26917 ft 448 kts
2026-05-06 16:58 44.33929 -2.64439 27275 ft 451 kts
2026-05-06 16:58 44.37033 -2.63745 27633 ft 453 kts
2026-05-06 16:58 44.40153 -2.63047 27979 ft 455 kts
2026-05-06 16:58 44.43286 -2.62346 28342 ft 457 kts
2026-05-06 16:59 44.46433 -2.61640 28687 ft 459 kts
2026-05-06 16:59 44.49598 -2.60930 29018 ft 461 kts
2026-05-06 16:59 44.52770 -2.60217 29339 ft 463 kts
2026-05-06 16:59 44.55920 -2.59509 29649 ft 465 kts
2026-05-06 17:00 44.59122 -2.58788 29983 ft 467 kts
2026-05-06 17:00 44.62325 -2.58065 30336 ft 466 kts
2026-05-06 17:00 44.65530 -2.57341 30692 ft 466 kts
2026-05-06 17:00 44.68727 -2.56618 31021 ft 466 kts
2026-05-06 17:01 44.71929 -2.55894 31351 ft 466 kts
2026-05-06 17:01 44.75127 -2.55170 31671 ft 466 kts
2026-05-06 17:01 44.78324 -2.54445 32000 ft 465 kts
2026-05-06 17:01 44.81479 -2.53729 32318 ft 465 kts
2026-05-06 17:02 44.84673 -2.53003 32640 ft 465 kts
2026-05-06 17:02 44.87868 -2.52276 32919 ft 465 kts
2026-05-06 17:02 44.91070 -2.51548 32982 ft 466 kts
2026-05-06 17:03 44.97428 -2.50096 32980 ft 461 kts
2026-05-06 17:03 45.03753 -2.48649 32979 ft 460 kts
2026-05-06 17:04 45.10033 -2.47211 32984 ft 460 kts
2026-05-06 17:04 45.16353 -2.45760 32982 ft 460 kts
2026-05-06 17:05 45.22666 -2.44307 32987 ft 459 kts
2026-05-06 17:05 45.28976 -2.42851 32975 ft 460 kts
2026-05-06 17:06 45.35347 -2.41380 32984 ft 473 kts
2026-05-06 17:06 45.41912 -2.39861 32981 ft 480 kts
2026-05-06 17:07 45.48498 -2.38328 32984 ft 479 kts
2026-05-06 17:07 45.55065 -2.36797 32977 ft 478 kts
2026-05-06 17:08 45.61628 -2.35265 32985 ft 478 kts
2026-05-06 17:08 45.68141 -2.33741 32989 ft 478 kts
2026-05-06 17:09 45.74700 -2.32204 32985 ft 478 kts
2026-05-06 17:09 45.81259 -2.30662 32976 ft 477 kts
2026-05-06 17:10 45.87812 -2.29118 32974 ft 477 kts
2026-05-06 17:10 45.94321 -2.27580 32975 ft 477 kts
2026-05-06 17:11 46.00871 -2.26029 32976 ft 477 kts
2026-05-06 17:11 46.07223 -2.23265 32977 ft 480 kts 24°
2026-05-06 17:12 46.13197 -2.18922 32971 ft 481 kts 26°
2026-05-06 17:12 46.19090 -2.14326 32968 ft 481 kts 27°
2026-05-06 17:13 46.24930 -2.09731 32970 ft 481 kts 27°
2026-05-06 17:13 46.30812 -2.05124 32963 ft 481 kts 27°
2026-05-06 17:14 46.36698 -2.00522 32961 ft 481 kts 27°
2026-05-06 17:14 46.42582 -1.95915 32960 ft 481 kts 27°
2026-05-06 17:15 46.48429 -1.91325 32953 ft 481 kts 27°
2026-05-06 17:15 46.54314 -1.86692 32955 ft 481 kts 27°
2026-05-06 17:16 46.60194 -1.82052 32951 ft 481 kts 27°
2026-05-06 17:16 46.66075 -1.77399 32955 ft 481 kts 27°
2026-05-06 17:17 46.71952 -1.72737 32958 ft 481 kts 27°
2026-05-06 17:17 46.77787 -1.68098 32958 ft 481 kts 27°
2026-05-06 17:18 46.83664 -1.63413 32957 ft 481 kts 27°
2026-05-06 17:18 46.89537 -1.58719 32958 ft 481 kts 27°
2026-05-06 17:19 46.95410 -1.54014 32956 ft 481 kts 27°
2026-05-06 17:19 47.01243 -1.49329 32952 ft 481 kts 27°
2026-05-06 17:20 47.07110 -1.44605 32954 ft 481 kts 27°
2026-05-06 17:20 47.12981 -1.39866 32964 ft 481 kts 27°
2026-05-06 17:21 47.18849 -1.35117 32962 ft 481 kts 27°
2026-05-06 17:21 47.24710 -1.30362 32960 ft 481 kts 27°
2026-05-06 17:22 47.30530 -1.25627 32958 ft 481 kts 27°
2026-05-06 17:22 47.36390 -1.20849 32956 ft 481 kts 27°
2026-05-06 17:23 47.42244 -1.16063 32955 ft 481 kts 27°
2026-05-06 17:23 47.48096 -1.11265 32955 ft 481 kts 27°
2026-05-06 17:24 47.53903 -1.06493 32952 ft 481 kts 27°
2026-05-06 17:24 47.59752 -1.01675 32962 ft 481 kts 28°
2026-05-06 17:25 47.65600 -0.96844 32962 ft 481 kts 28°
2026-05-06 17:25 47.71360 -0.91779 32963 ft 483 kts 35°
2026-05-06 17:26 47.76110 -0.84832 32963 ft 485 kts 49°
2026-05-06 17:26 47.80288 -0.76960 32970 ft 485 kts 51°
2026-05-06 17:27 47.84363 -0.68945 32963 ft 485 kts 51°
2026-05-06 17:27 47.88436 -0.60925 32965 ft 485 kts 51°
2026-05-06 17:28 47.92521 -0.52916 32966 ft 485 kts 51°
2026-05-06 17:28 47.96581 -0.44956 32965 ft 485 kts 51°
2026-05-06 17:29 48.00666 -0.36925 32967 ft 486 kts 51°
2026-05-06 17:29 48.04720 -0.28861 32964 ft 486 kts 54°
2026-05-06 17:30 48.07771 -0.19851 32969 ft 488 kts 68°
2026-05-06 17:30 48.09986 -0.10244 32968 ft 489 kts 71°
2026-05-06 17:31 48.12038 -0.00608 32975 ft 489 kts 71°
2026-05-06 17:31 48.14091 0.09098 32967 ft 489 kts 71°
2026-05-06 17:32 48.16154 0.18792 32963 ft 488 kts 71°
2026-05-06 17:32 48.18220 0.28489 32964 ft 488 kts 71°
2026-05-06 17:33 48.20264 0.38122 32959 ft 488 kts 71°
2026-05-06 17:33 48.22314 0.47834 32960 ft 488 kts 71°
2026-05-06 17:34 48.24354 0.57550 32952 ft 488 kts 71°
2026-05-06 17:34 48.26385 0.67267 32952 ft 488 kts 71°
2026-05-06 17:35 48.28407 0.76990 32946 ft 488 kts 71°
2026-05-06 17:35 48.30407 0.86656 32956 ft 488 kts 71°
2026-05-06 17:36 48.33413 1.01266 32946 ft 488 kts 71°
2026-05-06 17:36 48.35406 1.11016 32939 ft 488 kts 72°
2026-05-06 17:37 48.37378 1.20708 32931 ft 488 kts 72°
2026-05-06 17:37 48.39356 1.30477 32940 ft 488 kts 72°
2026-05-06 17:38 48.41327 1.40259 32927 ft 489 kts 72°
2026-05-06 17:38 48.43290 1.50052 32926 ft 489 kts 72°
2026-05-06 17:39 48.45231 1.59783 32920 ft 488 kts 72°
2026-05-06 17:39 48.47176 1.69582 32933 ft 488 kts 72°
2026-05-06 17:40 48.49112 1.79387 32927 ft 489 kts 72°
2026-05-06 17:40 48.51043 1.89217 32927 ft 489 kts 72°
2026-05-06 17:41 48.52968 1.99069 32930 ft 489 kts 73°
2026-05-06 17:41 48.54871 2.08852 32930 ft 489 kts 73°
2026-05-06 17:42 48.56486 2.18826 32940 ft 490 kts 83°
2026-05-06 17:42 48.56637 2.29094 32929 ft 490 kts 91°
2026-05-06 17:43 48.56370 2.39377 32934 ft 490 kts 93°
2026-05-06 17:43 48.56033 2.49585 32909 ft 490 kts 93°
2026-05-06 17:44 48.55702 2.59865 32912 ft 490 kts 92°
2026-05-06 17:44 48.55380 2.70139 32910 ft 490 kts 93°
2026-05-06 17:45 48.55058 2.80418 32910 ft 490 kts 93°
2026-05-06 17:45 48.54723 2.90696 32906 ft 490 kts 93°
2026-05-06 17:46 48.54380 3.00903 32907 ft 490 kts 93°
2026-05-06 17:46 48.54026 3.11157 32912 ft 489 kts 94°
2026-05-06 17:47 48.53663 3.21379 32910 ft 487 kts 94°
2026-05-06 17:47 48.53295 3.31519 32904 ft 487 kts 94°
2026-05-06 17:48 48.52916 3.41723 32909 ft 487 kts 94°
2026-05-06 17:48 48.52529 3.51929 32907 ft 487 kts 94°
2026-05-06 17:49 48.52131 3.62136 32906 ft 488 kts 94°
2026-05-06 17:49 48.51728 3.72276 32905 ft 488 kts 94°
2026-05-06 17:50 48.51313 3.82480 32907 ft 488 kts 94°
2026-05-06 17:50 48.50888 3.92687 32909 ft 488 kts 94°
2026-05-06 17:51 48.50424 4.01149 32913 ft 487 kts 99°
2026-05-06 17:51 48.48907 4.11081 32909 ft 486 kts 105°
2026-05-06 17:52 48.46836 4.22513 32913 ft 486 kts 106°
2026-05-06 17:52 48.45306 4.30730 32909 ft 486 kts 106°
2026-05-06 17:53 48.43496 4.40474 32906 ft 488 kts 106°
2026-05-06 17:53 48.41671 4.50319 32911 ft 488 kts 106°
2026-05-06 17:54 48.39841 4.60155 32908 ft 488 kts 106°
2026-05-06 17:54 48.38005 4.69982 32905 ft 488 kts 107°
2026-05-06 17:55 48.36172 4.79731 32903 ft 487 kts 107°
2026-05-06 17:55 48.34321 4.89525 32904 ft 487 kts 107°
2026-05-06 17:56 48.32463 4.99302 32894 ft 487 kts 107°
2026-05-06 17:56 48.30597 5.09076 32896 ft 487 kts 107°
2026-05-06 17:57 48.29602 5.19117 32890 ft 488 kts 91°
2026-05-06 17:57 48.29730 5.29259 32890 ft 489 kts 89°
2026-05-06 17:58 48.30050 5.39473 32888 ft 490 kts 88°
2026-05-06 17:58 48.30373 5.49685 32882 ft 490 kts 88°
2026-05-06 17:59 48.30664 5.59899 32874 ft 489 kts 89°
2026-05-06 17:59 48.30931 5.70099 32869 ft 489 kts 89°
2026-05-06 18:00 48.31184 5.80238 32865 ft 489 kts 89°
2026-05-06 18:00 48.31431 5.90448 32857 ft 489 kts 89°
2026-05-06 18:01 48.31669 6.00665 32858 ft 489 kts 89°
2026-05-06 18:01 48.32437 6.10756 32856 ft 492 kts 81°
2026-05-06 18:02 48.33692 6.20868 32857 ft 493 kts 80°
2026-05-06 18:02 48.35020 6.30981 32859 ft 493 kts 80°
2026-05-06 18:03 48.36337 6.41099 32861 ft 493 kts 80°
2026-05-06 18:03 48.37631 6.51215 32862 ft 493 kts 81°
2026-05-06 18:04 48.38904 6.61297 32864 ft 494 kts 81°
2026-05-06 18:04 48.40178 6.71458 32864 ft 494 kts 81°
2026-05-06 18:05 48.41456 6.81627 32865 ft 494 kts 81°
2026-05-06 18:05 48.42729 6.91793 32852 ft 494 kts 81°
2026-05-06 18:06 48.43977 7.01917 32862 ft 496 kts 81°
2026-05-06 18:06 48.45224 7.12117 32865 ft 495 kts 81°
2026-05-06 18:07 48.45978 7.22366 32865 ft 491 kts 94°
2026-05-06 18:07 48.45650 7.32626 32864 ft 490 kts 96°
2026-05-06 18:08 48.45127 7.42874 32790 ft 492 kts 97°
2026-05-06 18:08 48.44574 7.53127 32542 ft 487 kts 97°
2026-05-06 18:09 48.44306 7.58194 31744 ft 482 kts 96°
2026-05-06 18:09 48.44047 7.63133 30673 ft 479 kts 96°
2026-05-06 18:09 48.43785 7.68123 29652 ft 476 kts 95°
2026-05-06 18:09 48.43526 7.73043 28864 ft 467 kts 96°
2026-05-06 18:10 48.43274 7.77851 28258 ft 454 kts 96°
2026-05-06 18:10 48.43018 7.82553 27706 ft 448 kts 96°
2026-05-06 18:10 48.42757 7.87208 27126 ft 444 kts 97°
2026-05-06 18:10 48.42494 7.91820 26570 ft 441 kts 96°
2026-05-06 18:11 48.42231 7.96406 26007 ft 438 kts 96°
2026-05-06 18:11 48.41970 8.00954 25445 ft 435 kts 96°
2026-05-06 18:11 48.41710 8.05465 24890 ft 432 kts 96°
2026-05-06 18:11 48.41450 8.09954 24328 ft 429 kts 96°
2026-05-06 18:12 48.41195 8.14347 23773 ft 426 kts 96°
2026-05-06 18:12 48.40941 8.18776 23175 ft 424 kts 95°
2026-05-06 18:12 48.41047 8.23214 22546 ft 426 kts 82°
2026-05-06 18:12 48.41749 8.27538 21917 ft 425 kts 73°
2026-05-06 18:13 48.42633 8.31781 21310 ft 424 kts 73°
2026-05-06 18:13 48.43540 8.35987 20714 ft 422 kts 73°
2026-05-06 18:13 48.44444 8.40188 20127 ft 420 kts 73°
2026-05-06 18:13 48.45345 8.44348 19574 ft 414 kts 73°
2026-05-06 18:14 48.46220 8.48395 19121 ft 398 kts 73°
2026-05-06 18:14 48.47064 8.52285 18694 ft 386 kts 73°
2026-05-06 18:14 48.47897 8.56101 18260 ft 380 kts 73°
2026-05-06 18:14 48.48702 8.59813 17800 ft 376 kts 73°
2026-05-06 18:15 48.49518 8.63535 17317 ft 373 kts 73°
2026-05-06 18:15 48.50322 8.67232 16827 ft 370 kts 73°
2026-05-06 18:15 48.51119 8.70910 16360 ft 367 kts 73°
2026-05-06 18:15 48.51905 8.74536 15889 ft 361 kts 73°
2026-05-06 18:16 48.52679 8.78104 15432 ft 355 kts 73°
2026-05-06 18:16 48.53444 8.81618 14975 ft 352 kts 73°
2026-05-06 18:16 48.54206 8.85115 14535 ft 348 kts 73°
2026-05-06 18:16 48.54950 8.88526 14103 ft 347 kts 73°
2026-05-06 18:17 48.55698 8.91943 13662 ft 339 kts 73°
2026-05-06 18:17 48.56434 8.95298 13178 ft 333 kts 73°
2026-05-06 18:17 48.57159 8.98617 12697 ft 334 kts 73°
2026-05-06 18:17 48.57882 9.01957 12232 ft 335 kts 73°
2026-05-06 18:18 48.58603 9.05309 11767 ft 336 kts 73°
2026-05-06 18:18 48.59321 9.08673 11316 ft 337 kts 73°
2026-05-06 18:18 48.60032 9.12032 10958 ft 334 kts 73°
2026-05-06 18:18 48.60732 9.15353 10631 ft 330 kts 73°
2026-05-06 18:19 48.61421 9.18628 10295 ft 322 kts 73°
2026-05-06 18:19 48.62080 9.21779 9980 ft 307 kts 73°
2026-05-06 18:19 48.62720 9.24849 9635 ft 312 kts 73°
2026-05-06 18:19 48.63366 9.27976 9123 ft 317 kts 73°
2026-05-06 18:20 48.64024 9.31175 8605 ft 320 kts 73°
2026-05-06 18:20 48.64682 9.34398 8090 ft 322 kts 73°
2026-05-06 18:20 48.65341 9.37652 7596 ft 324 kts 73°
2026-05-06 18:20 48.65997 9.40910 7094 ft 323 kts 73°
2026-05-06 18:21 48.66635 9.44091 6595 ft 308 kts 73°
2026-05-06 18:21 48.67238 9.47110 6095 ft 291 kts 73°
2026-05-06 18:21 48.67826 9.49971 5567 ft 278 kts 70°
2026-05-06 18:21 48.68812 9.52377 5048 ft 264 kts 41°
2026-05-06 18:22 48.70332 9.53743 4544 ft 250 kts 13°
2026-05-06 18:22 48.71993 9.54258 4122 ft 237 kts
2026-05-06 18:22 48.73551 9.54424 3971 ft 209 kts 346°
2026-05-06 18:22 48.74682 9.53571 4012 ft 175 kts 308°
2026-05-06 18:23 48.75186 9.51863 4026 ft 182 kts 279°
2026-05-06 18:23 48.75346 9.49922 4009 ft 184 kts 274°
2026-05-06 18:23 48.75366 9.48041 3991 ft 174 kts 261°
2026-05-06 18:23 48.74942 9.46364 4057 ft 174 kts 239°
2026-05-06 18:24 48.74270 9.44793 4114 ft 182 kts 239°
2026-05-06 18:24 48.73620 9.43176 4098 ft 178 kts 243°
2026-05-06 18:24 48.73066 9.41537 3989 ft 170 kts 245°
2026-05-06 18:24 48.72627 9.39919 3786 ft 163 kts 250°
2026-05-06 18:25 48.72211 9.38372 3505 ft 155 kts 249°
2026-05-06 18:25 48.71797 9.36903 3133 ft 153 kts 249°
2026-05-06 18:25 48.71461 9.35408 2804 ft 145 kts 253°
2026-05-06 18:25 48.71203 9.33961 2510 ft 143 kts 255°
2026-05-06 18:26 48.70959 9.32474 2363 ft 147 kts 255°
2026-05-06 18:26 48.70669 9.30982 2162 ft 149 kts 251°
2026-05-06 18:26 48.70352 9.29459 1985 ft 156 kts 252°
2026-05-06 18:26 48.70052 9.27864 1806 ft 156 kts 255°
2026-05-06 18:27 48.69758 9.26266 1598 ft 159 kts 252°
2026-05-06 18:27 48.69447 9.24630 1402 ft 162 kts 253°
2026-05-06 18:27 48.69159 9.23085 1293 ft 141 kts 252°
2026-05-06 18:27 48.68932 9.21918 1290 ft 87 kts 254°
2026-05-06 18:28 48.68800 9.21215 1290 ft 59 kts 254°
2026-05-06 18:28 48.68704 9.20700 1289 ft 37 kts 254°
2026-05-06 18:28 48.68674 9.20429 1290 ft 21 kts 275°
2026-05-06 18:28 48.68692 9.20260 1289 ft 13 kts 282°
2026-05-06 18:29 48.68711 9.20141 1289 ft 7 kts 285°
2026-05-06 18:29 48.68713 9.20133 1289 ft 0 kts 285°
2026-05-06 18:29 48.68713 9.20131 1289 ft 0 kts 285°